Showing default

FLOCK 4BE 23, 60490

Orbit data source: Space-Track

FLOCK 4BE 23, 60490 is a payload satellite owned by Planet (US) in SSO that was launched on Fri, 16 Aug 2024 UTC via an FALCON 9 launch vehicle from the Air Force Western Test Range (AFWTR). Payload-class satellites include a variety of spacecraft equipped with specific instruments for various scientific and technological missions. These include communications satellites like Starlink; space stations such as the ISS; scientific satellites like the Hubble; Earth observation satellites from companies like Planet Labs, Umbra, and HawkEye 360; GPS; miniature CubeSats for education and research; and military/defense satellites.

Loading next visibility...
Identifier
60490, 2024-149Y
Orbit
SSO
Country
Flag of USUS
Related business
Manufacturer
Planet
Mission
Operational Commercial Imaging
Bus & Motor
CUBESAT 3U, Unknown motor
Mass
5.7 kg wet, 5.7 kg dry
Launch date (UTC)
2024-08-16 (1 year ago)
Launch vehicle
FALCON 9
Launch site
Air Force Western Test Range (AFWTR)
Object type
Payload
Rocket body
Debris
Shape & HBR
Box + 2 Pan, 1.0 m
Radar Cross Section
0.072 m², Medium (>0.1 m² and < 1m²)

Expand to show TLE details & history
Last TLE update: 11 hours ago

TLE from 11 hours ago
0 FLOCK 4BE 23
1 60490U 24149Y   25352.74220529  .00010291  00000-0  33252-3 0  9998
2 60490  97.3965  69.8534 0004098 177.3113 182.8152 15.32281411 74511
Epoch: 2025-12-18T17:48Z
TLE epoch observation values (Epoch: 2025-12-18T17:48:46.537Z)
Latitude
0.00005°
Longitude
75.06614°
Altitude
474.918 km
Speed
7.627 km/s
True Right ascension
04h 39m 24s
True Declination
0° 00' 00"
Sunlit
Object was in full shadow at epoch
Visualization orbit readout
Latitude
Unknown
Longitude
Unknown
Altitude
Unknown
Speed
Unknown
Apparent Right ascension
Unknown
Apparent Declination
Unknown
Sunlit
N/A
Visualization observer readout
Local Sidereal Time
03:43:45
Azimuth
Unknown
Elevation
Unknown
Doppler factor
Unknown
Orbital elements
Apogee altitude
468.761 km
Perigee altitude
463.152 km
Semi-major axis
6,844.093 km
Eccentricity
0.00041
Inclination
97.3965°
RAAN
69.8534°
Arg. of periapsis
177.3113°
True anomaly
182.81289°
Mean anomaly
182.8152°
Eccentric anomaly
182.81405°
Mean motion
3.83327 °/min
Orbital period
93.91 mins
BSTAR
0.00033252
Loading maneuver chart data...
Computing Atmospheric mass density...
Loading historical data...
Loading historical data...
Loading historical data...
Loading historical data...
Loading historical data...
Loading historical data...
Loading historical data...

Documentation

Showing up to 5 results
|